User: anonymous   Login
Location: Bottenau
(48.5138°N, 8.0462°E)
Time: 01:17:44
(UTC+00:00)
Language:

FALCON 9 DEB - Orbit

View from above orbital plane
View from above orbital plane
View from above satellite
View from above satellite

Ground track
Ground track

The orbit data is extracted from the following two-line orbital elements,

1 44295U 19029BN  21174.34277324  .00002950  00000-0  67824-4 0  9999
2 44295  52.9995 152.2185 0008590 166.8409 193.2822 15.46174040118824
Epoch (UTC): 23 June 2021 08:13:35
Eccentricity: 0.0008590
inclination: 52.9995°
perigee height: 422 km
apogee height: 434 km
right ascension of ascending node: 152.2185°
argument of perigee: 166.8409°
revolutions per day: 15.46174040
mean anomaly at epoch: 193.2822°
orbit number at epoch: 11882

The dashed part of the orbit path shows where the satellite is in the earth's shadow,  

DLR